Retour au catalogue

SL-8 DEB

ActifLEO
NORAD 8829·DEBRIS·🇷🇺 Russia

Lancé Sep 11, 1974 depuis Plesetsk Cosmodrome

Loading…

Prochains Passages (prochaines 24 heures)

TLE

FraisSource: Space-Track

Époque: Sep 14, 2026, 11:22 UTC

1 08829U 74071D   26257.47421490  .00001832  00000-0  31107-3 0  9998
2 08829  74.0544  66.6519 0013309 190.3722 169.7177 14.69902999826547

Suivez SL-8 DEB en temps réel avec AllMySat

Download on the App Store